Weather in Copenhagen

Denmark     55˚40′50″N   12˚35′08″E
temp.,
°C
wind,
m/s
gust,
m/s
humid.,
%
clouds,
%
prec.,
mm/h
press.,
hPa
HPBL,
m
29 november, sun
sun2901:00+2˚ne248531 0.0 1029118
04:00+1˚nne24850 0.0 1029127
07:00+1˚nne24860 0.0 1028135
10:00+1˚n24805 0.0 1028330
13:00+2˚n34723 0.0 1028500
16:00+1˚n24780 0.0 1026192
19:00n22820 0.0 102680
22:00n12840 0.0 102652
30 november, mon
mon3001:00nw12850 0.0 102648
04:00wnw22870 0.0 102467
07:00+1˚sw128429 0.0 102471
10:00+3˚sw3676100 0.0 1022347
13:00+3˚sw477479 0.0 1021497
16:00+4˚sw4993100 0.1 1018424
19:00+4˚sw61185100 0.1 1016605
22:00+4˚ssw51080100 0.0 1015593
1 december, tue
tue101:00+4˚s5980100 0.1 1014523
04:00+4˚s4788100 0.0 1014426
07:00+5˚sse3791100 0.1 1016365
10:00+5˚sse3592100 0.3 1017327
13:00+5˚ese2489100 0.6 1020345
16:00+5˚e3684100 0.0 1021481
19:00+4˚ese358580 0.0 1023231
22:00+4˚e367857 0.0 1024301
2 december, wed
wed201:00+4˚e367966 0.0 1025281
04:00+3˚ese367739 0.0 1024220
07:00+4˚ese367463 0.0 1023384
10:00+4˚ese3672100 0.0 1023528
13:00+4˚se3569100 0.1 1021632
16:00+4˚se4672100 0.0 1019651
19:00+4˚se456795 0.0 1018753
22:00+4˚se3567100 0.0 1018781
3 december, thu
thu301:00+4˚sse4670100 0.0 1016741
04:00+3˚sse357091 0.0 1015668
07:00+3˚sse467094 0.0 1014757
10:00+3˚sse466796 0.0 1013827
13:00+4˚se576690 0.0 1012901
16:00+3˚se597082 0.0 1010739
19:00+3˚se697173 0.0 1010881
22:00+3˚ese687099 0.0 1009954